TimeEDT,TemperatureF,Dew PointF,Humidity,Sea Level PressureIn,VisibilityMPH,Wind Direction,Wind SpeedMPH,Gust SpeedMPH,PrecipitationIn,Events,Conditions,WindDirDegrees,DateUTC
12:53 AM,82.9,77.0,82,30.16,10.0,East,6.9,-,N/A,,Mostly Cloudy,100,2012-10-04 04:53:00
1:53 AM,82.9,77.0,82,30.13,10.0,East,5.8,-,N/A,,Mostly Cloudy,80,2012-10-04 05:53:00
2:53 AM,82.9,73.9,74,30.12,10.0,East,10.4,-,N/A,,Scattered Clouds,90,2012-10-04 06:53:00
3:53 AM,81.0,73.9,79,30.11,10.0,East,8.1,-,N/A,,Scattered Clouds,90,2012-10-04 07:53:00
4:53 AM,81.0,73.9,79,30.11,10.0,East,6.9,-,N/A,,Scattered Clouds,90,2012-10-04 08:53:00
5:53 AM,81.0,77.0,88,30.11,10.0,East,11.5,-,0.00,Rain,Light Rain,100,2012-10-04 09:53:00
6:53 AM,81.0,75.0,82,30.12,10.0,East,11.5,-,0.16,,Mostly Cloudy,100,2012-10-04 10:53:00
7:53 AM,81.0,75.9,85,30.12,10.0,East,4.6,-,N/A,,Mostly Cloudy,90,2012-10-04 11:53:00
8:53 AM,82.9,78.1,85,30.14,10.0,East,8.1,-,N/A,,Scattered Clouds,100,2012-10-04 12:53:00
9:53 AM,86.0,77.0,74,30.15,10.0,ESE,11.5,-,N/A,,Scattered Clouds,110,2012-10-04 13:53:00
10:40 AM,86.0,77.0,74,30.15,10.0,SE,10.4,-,N/A,,Mostly Cloudy,130,2012-10-04 14:40:00
10:53 AM,86.0,77.0,74,30.15,10.0,East,11.5,-,N/A,,Mostly Cloudy,100,2012-10-04 14:53:00
11:45 AM,87.8,75.2,66,30.15,10.0,East,10.4,-,N/A,,Mostly Cloudy,100,2012-10-04 15:45:00
11:53 AM,87.1,75.0,67,30.15,10.0,East,8.1,-,N/A,,Mostly Cloudy,90,2012-10-04 15:53:00
12:13 PM,87.8,75.2,66,30.15,10.0,SE,10.4,-,N/A,,Mostly Cloudy,130,2012-10-04 16:13:00
12:53 PM,89.1,75.0,63,30.14,10.0,ESE,10.4,-,N/A,,Mostly Cloudy,120,2012-10-04 16:53:00
1:53 PM,88.0,75.0,65,30.12,10.0,ESE,10.4,-,N/A,,Mostly Cloudy,120,2012-10-04 17:53:00
2:40 PM,87.8,75.2,66,30.10,10.0,ESE,11.5,-,N/A,,Mostly Cloudy,110,2012-10-04 18:40:00
2:53 PM,88.0,75.9,67,30.09,10.0,ESE,11.5,-,N/A,,Mostly Cloudy,110,2012-10-04 18:53:00
3:53 PM,88.0,75.0,65,30.08,10.0,East,11.5,-,N/A,,Scattered Clouds,100,2012-10-04 19:53:00
4:53 PM,86.0,75.0,70,30.07,10.0,East,11.5,-,N/A,,Mostly Cloudy,100,2012-10-04 20:53:00
5:53 PM,84.9,75.9,74,30.08,10.0,East,8.1,-,N/A,,Mostly Cloudy,80,2012-10-04 21:53:00
6:53 PM,84.0,75.9,76,30.07,10.0,ENE,6.9,-,N/A,,Mostly Cloudy,70,2012-10-04 22:53:00
7:53 PM,84.0,75.9,76,30.09,10.0,NE,5.8,-,N/A,,Mostly Cloudy,50,2012-10-04 23:53:00
8:53 PM,84.0,75.9,76,30.11,10.0,ENE,6.9,-,N/A,,Mostly Cloudy,70,2012-10-05 00:53:00
9:53 PM,82.9,75.9,79,30.12,10.0,NNE,3.5,-,N/A,,Scattered Clouds,20,2012-10-05 01:53:00
10:53 PM,82.9,75.9,79,30.12,10.0,ENE,5.8,-,N/A,,Scattered Clouds,70,2012-10-05 02:53:00
11:53 PM,82.9,75.0,77,30.10,10.0,East,6.9,-,N/A,,Scattered Clouds,80,2012-10-05 03:53:00